Regional Weather Roundup
Issued by NWS Northern Indiana

Home | Current Version | Previous Version | Text Only | Print | Product List | Glossary Off
Versions: 1 2 3 4 5 6 7 8 9 10 11 12 13 14 15 16 17 18 19 20 21 22 23 24 25 26 27 28 29 30 31 32 33 34 35 36 37 38 39 40 41 42 43 44 45 46 47 48 49 50

000
ASUS43 KIWX 222310
RWRIWX

KIWX WEATHER ROUNDUP
NATIONAL WEATHER SERVICE NORTHERN INDIANA
700 PM EDT MON MAY 22 2017

NOTE: "FAIR" INDICATES FEW OR NO CLOUDS BELOW 12,000 FEET WITH NO
SIGNIFICANT WEATHER AND/OR OBSTRUCTIONS TO VISIBILITY.

* THESE STATIONS ARE NOT UNDER NWS QUALITY CONTROL. THEY ALSO MAY NOT
  REPORT WEATHER SUCH AS PRECIPITATION OR FOG.

INZ001>027-230000-
NORTHERN INDIANA

CITY           SKY/WX    TMP DP  RH WIND       PRES   REMARKS
GARY*          CLOUDY    73  34  23 SW17G29   29.92S
VALPARAISO     CLOUDY    72  45  37 SW15G24   29.94F
MICHIGAN CITY* CLOUDY    68  45  42 S8G21     29.94S
LAPORTE*       PTSUNNY   70  45  41 S15       29.95S
KNOX*          PTSUNNY   70  36  28 SW12G17   29.95S
SOUTH BEND     MOSUNNY   70  44  39 SW16      29.95F
ELKHART*       MOSUNNY   70  45  40 SW12      29.95F
GOSHEN         SUNNY     68  44  42 SW13      29.96F
MONTICELLO*    MOSUNNY   71  47  42 SW14G20   29.98S
LOGANSPORT*    MOSUNNY   68  48  49 SW12G17   30.00S
ROCHESTER*     MOSUNNY   72  46  40 SW9       29.98F
WARSAW*        MOSUNNY   68  45  42 S9        29.99S
ANGOLA*        SUNNY     70  61  73 SW9       29.97F
FORT WAYNE     MOSUNNY   69  46  43 SW12      30.00F
HUNTINGTON*    SUNNY     68  47  46 SW8       30.00R
PERU/GRISSOM   MOSUNNY   68  49  50 SW12      29.98F
MARION*        SUNNY     70  45  40 SW9       30.01S

$$
INZ028>050-230000-
CENTRAL INDIANA

CITY           SKY/WX    TMP DP  RH WIND       PRES   REMARKS
LAFAYETTE      SUNNY     69  46  43 SW9       29.99S
KOKOMO*        SUNNY     70  48  45 SW12      30.01S
MUNCIE*        SUNNY     71  42  35 W5        30.00F
INDIANAPOLIS   MOSUNNY   70  44  39 S6        30.00F

$$
MIZ043>046-050>051-056>058-064>065-071>073-077>080-230000-
SOUTHWEST LOWER MICHIGAN

CITY           SKY/WX    TMP DP  RH WIND       PRES   REMARKS
BATTLE CREEK   MOSUNNY   68  47  46 SW9       29.95F
BENTON HARBOR  CLOUDY    71  42  35 S12G20    29.92F
COLDWATER*     MOSUNNY   67  45  44 SW8G16    29.96S
HILLSDALE*     MOSUNNY   66  45  45 SW8G16    29.97S
HOLLAND        PTSUNNY   67  45  45 SW9       29.92F
GRAND RAPIDS   PTSUNNY   66  46  48 W12       29.93F
KALAMAZOO      MOSUNNY   68  43  40 SW10      29.94F
STURGIS*       SUNNY     67  48  50 SW14      29.96S
THREE RIVERS*  FAIR      69  44  40 SW5       29.95S

$$
OHZ001>008-015>018-024>025-230000-
NORTHWEST OHIO

CITY           SKY/WX    TMP DP  RH WIND       PRES   REMARKS
WAUSEON*       FAIR      70  45  40 W10       29.98F
DEFIANCE       MOSUNNY   69  43  38 SW8       29.98F
FINDLAY        SUNNY     71  44  37 W10       29.99F
TOLEDO EXPRESS MOSUNNY   69  45  41 W8G17     29.98F
TOLEDO METCALF SUNNY     70  46  42 W12       29.99F
LIMA           SUNNY     68  47  46 SW9       30.01F

$$
AND FOR LAKE MICHIGAN COASTAL AND OPEN LAKE BUOY OBSERVATIONS

STATION/POSITION TEMP    WIND        PRES    VSBY  WAVE
                 AIR SEA DIR/SP/G                  HT/PER
                 (F)     (DEG/KT/KT) (MB)    (MI)  (FT/S)
CALUMET HARBOR    72     210/ 11/ 16 1012.4R
MICHIGAN CITY     70     190/ 18/ 20   N/A
BURNS HARBOR      70     200/ 17/ 24 1013.5S
SOUTH LAKE BUOY   50 45  150/  8/ 10 1013.1          1/ 3
4 MI NW BRIDGMAN  63 56  210/ 10/ 12 1013.2          1
MICHIGAN CITY     65 53  200/ 16/ 19   N/A           2/ 2

$$
&&




USA.gov is the U.S. government's official web portal to all federal, state and local government web resources and services.